Location: Saint Michaels Cemetery
(37.9420°N, 100.1024°W)
Time: 01:05:12
(UTC+00:00)

Cosmos 1802 Rocket - Pass Details

Date: 21 September 2020
Orbit: 954 x 1011 km, 82.9° (Epoch: 23 October)

Event Time Altitude Azimuth Distance (km) Brightness Sun altitude
Rises 11:57:57 0° 346° (NNW) 3,656 6.9 -6.7°
Reaches altitude 10° 12:00:30 10° 342° (NNW) 2,712 6.2 -6.2°
Maximum altitude 12:06:26 49° 269° (W) 1,242 4.2 -5.0°
Drops below altitude 10° 12:12:24 10° 197° (SSW) 2,732 6.2 -3.9°
Sets 12:15:00 0° 191° (SSW) 3,685 6.9 -3.4°
